F4AMY-13 Weather Reports


time (UTC)temp
F
wind
direction
speed
knots
gust
knots
rain 1hr
in
rain 24hr
in
rain mn
in
humidity
%
barometer
mb
20260507212307 50 257 0.0 0.0 0.00 0.00 3.90 86 1012.1
20260507211804 51 257 0.0 0.0 0.00 0.00 3.90 86 1012.0
20260507211304 51 259 0.0 0.0 0.00 0.00 3.90 85 1012.0
20260507210804 51 260 0.0 0.0 0.00 0.00 3.90 85 1012.0
20260507210304 51 260 0.0 0.0 0.00 0.00 3.90 85 1012.0
20260507205804 51 260 0.0 0.0 0.00 0.00 3.90 84 1012.0
20260507205306 52 260 0.0 0.0 0.00 0.00 3.90 84 1011.8
20260507204804 52 260 0.0 0.0 0.00 0.00 3.90 84 1011.7
20260507204304 52 260 0.0 0.0 0.00 0.00 3.90 84 1011.6
20260507203803 52 256 0.0 0.0 0.00 0.00 3.90 83 1011.7
20260507203303 53 256 0.0 0.0 0.00 0.00 3.90 83 1011.7
20260507202803 53 256 0.0 0.0 0.00 0.00 3.90 83 1011.7
20260507202306 53 256 0.0 0.0 0.00 0.00 3.90 82 1011.7
20260507201803 54 256 0.0 0.0 0.00 0.00 3.90 82 1011.5
20260507201303 54 256 0.0 0.0 0.00 0.00 3.90 81 1011.2
20260507200803 55 257 0.0 0.0 0.00 0.00 3.90 81 1011.4
20260507200303 55 257 0.0 0.0 0.00 0.00 3.90 81 1011.3
20260507195803 55 257 0.0 0.0 0.00 0.00 3.90 80 1011.4
20260507195305 55 257 0.0 0.0 0.00 0.00 3.90 80 1011.3
20260507194803 56 257 0.0 0.0 0.00 0.00 3.90 79 1011.4
20260507194303 56 257 0.0 0.0 0.00 0.00 3.90 78 1011.2
20260507193804 57 258 0.0 0.0 0.00 0.00 3.90 78 1011.1
20260507193303 57 256 0.0 0.0 0.00 0.00 3.90 77 1011.0
20260507192803 57 273 0.0 0.0 0.00 0.00 3.90 76 1011.3
20260507192306 57 257 0.0 0.0 0.00 0.00 3.90 75 1011.2
20260507191803 58 257 0.0 0.0 0.00 0.00 3.90 75 1011.2
20260507191302 58 254 0.0 0.0 0.00 0.00 3.90 74 1011.1
20260507190802 59 256 0.0 0.0 0.00 0.00 3.90 73 1011.1
20260507190303 59 257 0.0 0.0 0.00 0.00 3.90 73 1011.1
20260507185802 59 248 0.0 0.0 0.00 0.00 3.90 72 1011.1
20260507185305 60 254 0.0 0.0 0.00 0.00 3.90 71 1011.0
20260507184802 60 263 0.0 0.0 0.00 0.00 3.90 70 1010.9
20260507184302 60 245 0.0 0.0 0.00 0.00 3.90 69 1011.1
20260507183802 61 249 0.0 0.0 0.00 0.00 3.90 69 1011.3
20260507183302 61 248 0.0 0.0 0.00 0.00 3.90 68 1011.0
20260507182802 62 253 0.0 0.0 0.00 0.00 3.90 66 1011.1
20260507182302 62 268 0.0 0.0 0.00 0.00 3.90 66 1011.2
20260507181802 62 251 0.0 0.0 0.00 0.00 3.90 64 1010.9
20260507181302 62 254 0.0 0.0 0.00 0.00 3.90 63 1010.8
20260507180802 63 263 0.0 0.0 0.00 0.00 3.90 62 1010.9
20260507180302 63 256 0.0 0.0 0.00 0.00 3.90 61 1010.7
20260507175802 63 256 0.0 0.0 0.00 0.00 3.90 61 1010.7
20260507175301 63 234 0.0 0.0 0.00 0.00 3.90 59 1010.8
20260507174801 64 267 0.0 0.0 0.00 0.00 3.90 59 1010.8
20260507174301 64 238 0.0 0.0 0.00 0.00 3.90 58 1010.6
20260507173801 65 314 0.0 0.0 0.00 0.00 3.90 58 1010.6
20260507173301 65 253 0.0 0.0 0.00 0.00 3.90 58 1010.7
20260507172801 66 253 0.0 6.1 0.00 0.00 3.90 57 1010.6
20260507172301 67 258 0.0 0.0 0.00 0.00 3.90 58 1010.6
20260507171801 68 270 0.0 6.1 0.00 0.00 3.90 54 1010.7
20260507171301 70 261 0.0 0.0 0.00 0.00 3.90 52 1010.7
20260507170801 71 227 0.0 0.0 0.00 0.00 3.90 54 1010.7
20260507170301 72 275 0.0 0.0 0.00 0.00 3.90 50 1010.6
20260507165801 73 244 0.0 0.0 0.00 0.00 3.90 51 1010.6
20260507165301 73 261 0.0 0.0 0.00 0.00 3.90 46 1010.6
20260507164801 74 256 0.0 0.0 0.00 0.00 3.90 45 1011.0
20260507164301 74 263 0.0 0.0 0.00 0.00 3.90 45 1010.7
20260507163801 75 270 0.0 0.0 0.00 0.00 3.90 45 1010.8
20260507163300 75 256 4.3 13.0 0.00 0.00 3.90 43 1010.8
20260507162800 76 297 0.0 6.1 0.00 0.00 3.90 43 1010.8
20260507162300 76 20 0.0 0.0 0.00 0.00 3.90 43 1010.7
20260507161800 76 216 0.0 0.0 0.00 0.00 3.90 43 1010.9
20260507161300 77 245 0.0 6.1 0.00 0.00 3.90 42 1010.5
20260507160800 77 244 0.0 0.0 0.00 0.00 3.90 43 1010.5
20260507160300 77 282 2.6 6.1 0.00 0.00 3.90 40 1010.7
20260507155800 78 248 0.0 0.0 0.00 0.00 3.90 43 1010.7
20260507155300 78 211 0.0 6.1 0.00 0.00 3.90 44 1010.7
20260507154800 78 262 3.5 6.1 0.00 0.00 3.90 40 1010.6
20260507154300 78 291 0.0 0.0 0.00 0.00 3.90 40 1010.5
20260507153846 78 237 0.0 6.1 0.00 0.00 3.90 41 10.1
20260507153800 78 237 0.0 6.1 0.00 0.00 3.90 41 1010.6
20260507153457 78 349 0.0 6.1 0.00 0.00 3.90 39 1010.7
20260507153300 78 349 0.0 6.1 0.00 0.00 3.90 39 1010.7
20260507152841 78 217 0.0 6.1 0.00 0.00 3.90 43 1010.6
20260507152800 78 274 0.0 0.0 0.00 0.00 3.90 39 1010.5
20260507152300 78 217 0.0 6.1 0.00 0.00 3.90 43 1010.6
20260507151800 78 262 0.0 0.0 0.00 0.00 3.90 40 1010.6
20260507151300 79 241 0.0 6.1 0.00 0.00 3.90 37 1010.7
20260507150800 79 233 0.0 0.0 0.00 0.00 3.90 42 1010.6
20260507150259 79 347 0.0 0.0 0.00 0.00 3.90 40 1010.8
20260507145759 79 282 7.0 20.0 0.00 0.00 3.90 38 1010.7
20260507145259 78 357 2.6 6.1 0.00 0.00 3.90 36 1010.9
20260507144759 78 227 3.5 6.1 0.00 0.00 3.90 36 1010.6
20260507144259 78 274 7.8 13.0 0.00 0.00 3.90 35 1010.6
20260507143759 78 235 0.0 0.0 0.00 0.00 3.90 40 1010.9
20260507143259 78 244 0.0 6.1 0.00 0.00 3.90 39 1010.8
20260507142759 77 259 0.0 0.0 0.00 0.00 3.90 38 1010.9
20260507142259 77 219 0.0 0.0 0.00 0.00 3.90 38 1010.9
20260507141759 77 277 0.0 0.0 0.00 0.00 3.90 40 1010.8
20260507141259 76 245 0.0 6.1 0.00 0.00 3.90 44 1011.0
20260507140759 76 237 2.6 6.1 0.00 0.00 3.90 42 1011.0
20260507140259 75 249 0.0 0.0 0.00 0.00 3.90 40 1011.0
20260507135759 75 259 0.0 6.1 0.00 0.00 3.90 44 1010.9
20260507135259 75 244 0.0 0.0 0.00 0.00 3.90 45 1011.0
20260507134759 76 271 0.0 0.0 0.00 0.00 3.90 43 1010.9
20260507134259 76 197 0.0 6.1 0.00 0.00 3.90 42 1011.1
20260507133759 76 256 2.6 13.0 0.00 0.00 3.90 42 1010.9
20260507133258 76 214 0.0 6.1 0.00 0.00 3.90 41 1011.2
20260507132758 76 191 0.9 6.1 0.00 0.00 3.90 40 1011.1
20260507132258 76 238 0.0 6.1 0.00 0.00 3.90 41 1011.1
20260507131758 76 265 0.0 6.1 0.00 0.00 3.90 43 1011.1
20260507131258 76 252 1.7 6.1 0.00 0.00 3.90 45 1011.1
20260507130758 75 329 0.0 0.0 0.00 0.00 3.90 45 1011.0
20260507130258 76 205 0.0 6.1 0.00 0.00 3.90 45 1011.1
20260507125758 76 248 0.0 0.0 0.00 0.00 3.90 44 1011.1
20260507125258 76 278 0.0 0.0 0.00 0.00 3.90 45 1011.3
20260507124758 76 269 0.0 0.0 0.00 0.00 3.90 51 1011.2
20260507124437 75 250 6.1 13.0 0.00 0.00 3.90 47 1011.0
20260507124258 75 250 6.1 13.0 0.00 0.00 3.90 47 1011.0
20260507123933 75 219 0.0 6.1 0.00 0.00 3.90 46 1011.0
20260507123758 75 219 0.0 6.1 0.00 0.00 3.90 46 1011.0
20260507123258 75 273 0.0 0.0 0.00 0.00 3.90 46 1011.0
20260507122758 75 229 2.6 6.1 0.00 0.00 3.90 46 1010.9
20260507122300 75 295 4.3 13.0 0.00 0.00 3.90 45 1011.1
20260507122258 75 295 4.3 13.0 0.00 0.00 3.90 45 1011.1
20260507121758 75 244 6.1 13.0 0.00 0.00 3.90 48 1010.9
20260507121258 75 225 0.0 0.0 0.00 0.00 3.90 45 1010.8
20260507120757 75 162 3.5 6.1 0.00 0.00 3.90 44 1011.0
20260507120257 75 196 0.0 6.1 0.00 0.00 3.90 42 1011.0
20260507115758 75 249 0.0 6.1 0.00 0.00 3.90 53 1010.8
20260507115257 75 249 0.0 6.1 0.00 0.00 3.90 53 1010.8
20260507114757 74 212 0.0 0.0 0.00 0.00 3.90 41 1011.0
20260507114257 74 231 0.0 0.0 0.00 0.00 3.90 45 1011.0
20260507113758 74 161 0.0 6.1 0.00 0.00 3.90 42 1011.0
20260507113258 74 270 6.1 13.0 0.00 0.00 3.90 45 1010.8
20260507112757 73 243 0.0 0.0 0.00 0.00 3.90 43 1010.8
20260507112257 73 302 2.6 6.1 0.00 0.00 3.90 41 1010.7
20260507111757 73 257 0.0 0.0 0.00 0.00 3.90 43 1011.0
20260507111257 73 191 0.0 6.1 0.00 0.00 3.90 44 1011.1
20260507110757 72 235 2.6 6.1 0.00 0.00 3.90 44 1010.8
20260507110257 72 251 0.0 6.1 0.00 0.00 3.90 43 1010.9
20260507105757 71 211 3.5 13.0 0.00 0.00 3.90 45 1011.1
20260507105257 71 259 0.0 0.0 0.00 0.00 3.90 45 1011.1
20260507104756 71 280 0.0 0.0 0.00 0.00 3.90 46 1011.2
20260507104256 70 283 3.5 13.0 0.00 0.00 3.90 47 1011.2
20260507103756 70 245 0.0 0.0 0.00 0.00 3.90 50 1011.4
20260507103256 69 267 0.0 0.0 0.00 0.00 3.90 52 1011.3
20260507102756 69 287 0.0 0.0 0.00 0.00 3.90 52 1011.4
20260507102256 69 337 0.0 6.1 0.00 0.00 3.90 49 1011.5
20260507101756 68 327 0.0 0.0 0.00 0.00 3.90 51 1011.4
20260507101256 68 226 0.0 0.0 0.00 0.00 3.90 57 1011.3
20260507100756 68 280 0.9 6.1 0.00 0.00 3.90 52 1011.3
20260507100256 67 282 0.0 6.1 0.00 0.00 3.90 50 1011.6
20260507095756 67 298 0.0 0.0 0.00 0.00 3.90 55 1011.6
20260507095256 67 243 0.0 0.0 0.00 0.00 3.90 52 1011.7
20260507094756 66 261 0.0 0.0 0.00 0.00 3.90 59 1011.6
20260507094256 66 338 0.0 0.0 0.00 0.00 3.90 57 1011.5
20260507093756 66 224 0.9 6.1 0.00 0.00 3.90 53 1011.7
20260507093256 65 217 0.0 0.0 0.00 0.00 3.90 47 1011.8
20260507092756 65 259 6.1 13.0 0.00 0.00 3.90 50 1011.8
20260507092256 65 197 0.0 0.0 0.00 0.00 3.90 57 1011.6
20260507091755 64 292 0.0 0.0 0.00 0.00 3.90 57 1011.8
20260507091255 64 322 0.0 0.0 0.00 0.00 3.90 59 1011.5
20260507090755 64 242 0.0 0.0 0.00 0.00 3.90 57 1011.7
20260507090255 64 353 0.0 0.0 0.00 0.00 3.90 61 1011.6
20260507085755 63 246 0.0 0.0 0.00 0.00 3.90 61 1011.6
20260507085255 63 338 0.0 0.0 0.00 0.00 3.90 61 1011.5
20260507084755 63 210 0.0 0.0 0.00 0.00 3.90 61 1011.6
20260507084255 63 232 0.0 6.1 0.00 0.00 3.90 62 1011.6
20260507083755 62 211 0.0 0.0 0.00 0.00 3.90 63 1011.6
20260507083255 62 259 0.0 6.1 0.00 0.00 3.90 65 1011.7
20260507082755 62 207 1.7 6.1 0.00 0.00 3.90 65 1011.9
20260507082255 61 225 0.0 0.0 0.00 0.00 3.90 66 1011.6
20260507081755 61 294 0.0 0.0 0.00 0.00 3.90 69 1011.4
20260507081255 60 328 0.0 0.0 0.00 0.00 3.90 71 1011.6
20260507080755 60 313 0.0 0.0 0.00 0.00 3.90 73 1011.4
20260507080255 60 250 0.0 6.1 0.00 0.00 3.90 72 1011.7
20260507075754 59 224 0.0 0.0 0.00 0.00 3.90 72 1011.5
20260507075254 59 244 0.0 0.0 0.00 0.00 3.90 74 1011.4
20260507074754 58 245 0.0 0.0 0.00 0.00 3.90 74 1011.6
20260507074254 57 268 0.0 0.0 0.00 0.00 3.90 76 1011.7
20260507073754 57 263 0.0 0.0 0.00 0.00 3.90 78 1011.6
20260507073254 56 254 0.0 0.0 0.00 0.00 3.90 79 1011.7
20260507072754 55 254 0.0 0.0 0.00 0.00 3.90 81 1011.5
20260507072254 55 260 0.0 0.0 0.00 0.00 3.90 87 1011.4
20260507071754 54 283 0.0 0.0 0.00 0.00 3.90 92 1011.6
20260507071254 54 265 0.0 0.0 0.00 0.00 3.90 93 1011.5
20260507070754 54 261 0.0 0.0 0.00 0.00 3.90 93 1011.5
20260507070254 54 266 0.0 0.0 0.00 0.00 3.90 94 1011.5
20260507065754 53 275 0.0 0.0 0.00 0.00 3.90 94 1011.4
20260507065254 53 261 0.0 0.0 0.00 0.00 3.90 94 1011.3
20260507064754 53 263 0.0 0.0 0.00 0.00 3.90 94 1011.6
20260507064254 53 256 0.0 0.0 0.00 0.00 3.90 94 1011.5
20260507063754 52 261 0.0 0.0 0.00 0.00 3.90 94 1011.2
20260507063253 52 261 0.0 0.0 0.00 0.00 3.90 94 1011.5
20260507062753 51 262 0.0 0.0 0.00 0.00 3.90 94 1011.2
20260507062253 51 263 0.0 0.0 0.00 0.00 3.90 94 1011.5
20260507061753 51 266 0.0 0.0 0.00 0.00 3.90 94 1011.5
20260507061253 50 267 0.0 0.0 0.00 0.00 3.90 94 1011.5
20260507060753 50 268 0.0 0.0 0.00 0.00 3.90 94 1011.4
20260507060253 49 276 0.0 0.0 0.00 0.00 3.90 94 1011.4
20260507055753 49 268 0.0 0.0 0.00 0.00 3.90 94 1011.4
20260507055253 49 268 0.0 0.0 0.00 0.00 3.90 94 1011.4
20260507054753 48 267 0.0 0.0 0.00 0.00 3.90 94 1011.4
20260507054253 48 266 0.0 0.0 0.00 0.00 3.90 94 1011.3
20260507053753 48 265 0.0 0.0 0.00 0.00 3.90 94 1011.3
20260507053253 48 269 0.0 0.0 0.00 0.00 3.90 94 1011.2
20260507052753 47 268 0.0 0.0 0.00 0.00 3.90 94 1011.2
20260507052253 47 267 0.0 0.0 0.00 0.00 3.90 94 1011.3
20260507051753 47 268 0.0 0.0 0.00 0.00 3.90 94 1011.3
20260507051253 47 269 0.0 0.0 0.00 0.00 3.90 94 1011.2
20260507050752 47 265 0.0 0.0 0.00 0.00 3.90 94 1011.1
20260507050252 47 265 0.0 0.0 0.00 0.00 3.90 94 1011.1
20260507045752 47 264 0.0 0.0 0.00 0.00 3.90 94 1011.0
20260507045252 47 268 0.0 0.0 0.00 0.00 3.90 94 1010.9
20260507044752 47 290 0.0 0.0 0.00 0.00 3.90 94 1011.1
20260507044252 48 258 0.0 0.0 0.00 0.00 3.90 93 1011.1
20260507043752 48 258 0.0 0.0 0.00 0.00 3.90 93 1011.1
20260507043252 48 258 0.0 0.0 0.00 0.00 3.90 93 1011.0
20260507042752 48 258 0.0 0.0 0.00 0.00 3.90 93 1011.2
20260507042252 48 263 0.0 0.0 0.00 0.00 3.90 93 1010.9
20260507041752 48 263 0.0 0.0 0.00 0.00 3.90 93 1010.9
20260507041252 48 260 0.0 0.0 0.00 0.00 3.90 93 1010.7
20260507040752 48 261 0.0 0.0 0.00 0.00 3.90 93 1011.0
20260507040252 48 264 0.0 0.0 0.00 0.00 3.90 93 1010.8
20260507035752 48 264 0.0 0.0 0.00 0.00 3.90 93 1010.9
20260507035252 49 267 0.0 0.0 0.00 0.00 3.90 93 1011.1
20260507034752 49 260 0.0 0.0 0.00 0.00 3.90 93 1010.7
20260507034252 49 260 0.0 0.0 0.00 0.00 3.90 93 1010.7
20260507033751 49 259 0.0 0.0 0.00 0.00 3.90 93 1010.9
20260507033251 49 254 0.0 0.0 0.00 0.00 3.90 93 1010.9
20260507032751 49 254 0.0 0.0 0.00 0.00 3.90 93 1010.8
20260507032251 49 264 0.0 0.0 0.00 0.00 3.90 93 1010.7
20260507031751 49 252 0.0 0.0 0.00 0.00 3.90 93 1010.8
20260507031251 49 262 0.0 0.0 0.00 0.00 3.90 93 1010.9
20260507030751 49 262 0.0 0.0 0.00 0.00 3.90 93 1010.8
20260507030251 49 264 0.0 0.0 0.00 0.00 3.90 93 1010.9
20260507025751 49 257 0.0 0.0 0.00 0.00 3.90 93 1010.9
20260507025251 49 264 0.0 0.0 0.00 0.00 3.90 93 1010.7
20260507024751 49 324 0.0 0.0 0.00 0.00 3.90 93 1010.8
20260507024251 50 263 0.0 0.0 0.00 0.00 3.90 93 1010.6
20260507023751 50 260 0.0 0.0 0.00 0.00 3.90 93 1010.7
20260507023251 50 259 0.0 0.0 0.00 0.00 3.90 92 1010.6
20260507022751 50 261 0.0 0.0 0.00 0.00 3.90 92 1010.7
20260507022250 51 259 0.0 0.0 0.00 0.00 3.90 92 1010.7
20260507021750 51 259 0.0 0.0 0.00 0.00 3.90 92 1010.8
20260507021250 51 259 0.0 0.0 0.00 0.00 3.90 92 1010.7
20260507020750 51 259 0.0 0.0 0.00 0.00 3.90 92 1010.9
20260507020250 51 259 0.0 0.0 0.00 0.00 3.90 92 1010.8
20260507015750 51 259 0.0 0.0 0.00 0.00 3.90 92 1010.8
20260507015250 51 259 0.0 0.0 0.00 0.00 3.90 92 1010.8
20260507014750 52 259 0.0 0.0 0.00 0.00 3.90 92 1010.7
20260507014250 52 261 0.0 0.0 0.00 0.00 3.90 92 1011.0
20260507013750 52 261 0.0 0.0 0.00 0.00 3.90 92 1011.1
20260507013250 52 258 0.0 0.0 0.00 0.00 3.90 92 1011.0
20260507012750 52 257 0.0 0.0 0.00 0.00 3.90 92 1010.9
20260507012250 52 261 0.0 0.0 0.00 0.00 3.90 92 1010.9
20260507011750 52 261 0.0 0.0 0.00 0.00 3.90 92 1010.8
20260507011250 52 261 0.0 0.0 0.00 0.00 3.90 92 1011.0
20260507010750 52 261 0.0 0.0 0.00 0.00 3.90 92 1010.9
20260507010250 52 253 0.0 0.0 0.00 0.00 3.90 92 1011.0
20260507005749 52 263 0.0 0.0 0.00 0.00 3.90 91 1010.9
20260507005249 52 263 0.0 0.0 0.00 0.00 3.90 91 1011.0
20260507004749 52 264 0.0 0.0 0.00 0.00 3.90 91 1011.3
20260507004249 52 259 0.0 0.0 0.00 0.00 3.90 91 1011.0
20260507003749 52 259 0.0 0.0 0.00 0.00 3.90 91 1010.9
20260507003249 52 259 0.0 0.0 0.00 0.00 3.90 91 1011.2
20260507002749 52 259 0.0 0.0 0.00 0.00 3.90 91 1011.3
20260507002249 52 259 0.0 0.0 0.00 0.00 3.90 90 1011.3
20260507001749 53 259 0.0 0.0 0.00 0.00 3.90 90 1011.1
20260507001249 53 259 0.0 0.0 0.00 0.00 3.90 90 1011.2
20260507000749 53 259 0.0 0.0 0.00 0.00 3.90 90 1011.1
20260507000249 53 259 0.0 0.0 0.00 0.00 3.90 90 1011.2
20260506235749 53 259 0.0 0.0 0.00 0.00 3.90 90 1011.3
20260506235249 54 259 0.0 0.0 0.00 0.00 3.90 89 1011.2
20260506234749 54 259 0.0 0.0 0.00 0.00 3.90 89 1011.2
20260506234249 54 259 0.0 0.0 0.00 0.00 3.90 90 1011.3
20260506233749 54 259 0.0 0.0 0.00 0.00 3.90 89 1011.3
20260506233248 54 263 0.0 0.0 0.00 0.00 3.90 89 1011.4
20260506232748 55 261 0.0 0.0 0.00 0.00 3.90 89 1011.3
20260506232248 55 266 0.0 0.0 0.00 0.00 3.90 89 1011.5
20260506231748 55 256 0.0 0.0 0.00 0.00 3.90 89 1011.4
20260506231248 55 248 0.0 0.0 0.00 0.00 3.90 89 1011.5
20260506230748 55 252 0.0 0.0 0.00 0.00 3.90 89 1011.5
20260506230248 55 255 0.0 0.0 0.00 0.00 3.90 89 1011.4
20260506225748 55 261 0.0 0.0 0.00 0.00 3.90 89 1011.7
20260506225248 55 257 0.0 0.0 0.00 0.00 3.90 89 1011.4
20260506224748 55 262 0.0 0.0 0.00 0.00 3.90 89 1011.6
20260506224248 55 274 0.0 0.0 0.00 0.00 3.90 89 1011.7
20260506223748 55 242 0.0 0.0 0.00 0.00 3.90 88 1011.5
20260506223248 55 263 0.0 0.0 0.00 0.00 3.90 89 1011.3
20260506222748 55 266 0.0 0.0 0.00 0.00 3.90 89 1011.6
20260506222248 55 258 0.0 0.0 0.00 0.00 3.90 88 1011.5
20260506221747 55 265 0.0 0.0 0.00 0.00 3.90 88 1011.4
20260506221247 55 248 0.0 0.0 0.00 0.00 3.90 88 1011.4
20260506220747 55 271 0.0 0.0 0.00 0.00 3.90 88 1011.6
20260506220247 55 246 0.0 0.0 0.00 0.00 3.90 87 1011.5
20260506215747 55 252 0.0 0.0 0.00 1.47 3.90 87 1011.7
20260506215247 55 256 0.0 0.0 0.00 1.47 3.90 87 1011.4
20260506214747 55 254 0.0 0.0 0.00 1.47 3.90 86 1011.5
20260506214247 55 261 0.0 0.0 0.00 1.47 3.90 86 1011.6
20260506213747 55 259 0.0 0.0 0.00 1.47 3.90 85 1011.4
20260506213247 55 249 0.0 0.0 0.00 1.47 3.90 85 1011.4
20260506212747 55 273 0.0 0.0 0.00 1.47 3.90 84 1011.3